GFSSGP_sfc_wetblb_231.txt.gz
Wetbulb
65.75 64.55 64.00 60.55 57.94 59.29 54.85 56.59 61.13 60.07 60.66 63.42 64.24 62.61 60.98 62.70 60.95 58.66 70.77 73.03 73.90 75.39 77.46 77.16 77.33 76.37 75.60 75.80 76.12 76.77 76.97 77.10 77.18 77.20 77.18 77.08 76.93 76.80 76.45 76.78 77.18 77.51 76.83 76.57 76.67 76.14 75.72 75.80 75.49
62.72 60.01 59.91 58.00 56.74 51.17 53.20 56.25 59.18 61.82 63.42 64.57 64.05 63.60 62.07 60.87 66.01 66.02 69.27 72.74 72.75 75.19 77.19 77.36 77.40 76.83 75.92 75.65 75.77 76.42 76.82 76.90 76.90 77.08 77.05 76.95 76.58 76.45 76.23 76.63 76.98 76.86 76.91 76.90 76.77 76.57 76.17 75.69 75.48
62.04 60.25 57.79 56.50 54.25 51.74 52.88 58.32 60.77 61.40 63.85 63.84 62.84 64.79 63.44 62.52 66.04 68.14 71.79 73.26 73.97 75.33 76.89 77.77 77.45 76.95 76.02 75.77 75.39 75.59 76.37 76.55 76.68 76.93 77.00 76.73 76.43 76.38 76.00 76.58 76.78 76.25 76.20 76.64 76.68 76.81 76.49 76.11 75.41
59.61 56.19 57.23 56.03 53.31 54.12 56.47 60.10 61.56 61.86 63.33 64.60 64.44 61.40 66.04 69.34 68.07 71.46 73.50 74.00 73.98 75.23 75.93 77.40 77.24 76.94 76.40 75.75 75.64 75.42 75.47 76.12 76.55 76.55 76.60 76.70 76.48 76.10 76.12 76.10 76.45 76.41 75.76 75.92 75.99 76.19 76.22 76.12 75.72
54.76 54.46 53.78 53.18 51.86 53.63 56.86 61.67 62.66 61.73 62.95 64.05 65.38 62.21 63.60 69.00 71.12 70.93 71.45 73.19 74.05 74.90 75.87 77.00 77.30 77.05 76.75 75.85 76.02 75.69 75.32 75.50 75.62 75.60 75.67 76.00 76.02 75.92 76.00 76.10 76.07 76.04 75.76 75.74 75.91 75.79 75.65 75.60 75.32
52.49 52.67 51.26 50.13 50.88 52.31 56.33 61.83 62.17 62.21 62.44 64.96 65.19 63.40 62.80 72.01 70.08 69.04 70.48 71.60 74.59 74.38 75.63 76.88 77.13 77.19 76.89 76.60 76.29 76.31 76.08 75.66 75.52 75.20 75.22 75.00 74.92 75.02 75.07 75.37 75.67 75.90 76.15 76.04 76.02 76.13 75.82 75.29 75.37
50.95 50.23 45.72 45.87 48.43 52.50 52.88 61.05 60.25 59.73 63.94 64.78 66.11 61.96 65.63 69.91 70.46 69.65 70.34 71.77 71.45 74.39 74.98 76.12 76.67 76.97 76.82 76.53 76.11 75.96 75.90 75.78 75.68 75.63 75.41 75.26 75.27 74.85 74.77 75.05 75.25 75.75 76.25 76.35 76.60 76.47 75.92 75.49 75.09
50.40 50.50 45.01 45.81 48.15 49.97 51.69 52.22 56.74 63.13 59.76 63.26 59.98 57.49 63.51 70.27 70.68 70.12 69.78 71.13 72.43 73.42 73.96 74.91 76.30 76.01 76.20 75.54 76.21 75.88 75.64 75.46 75.43 75.38 75.55 75.50 75.41 75.41 75.16 75.15 74.89 75.27 75.90 76.02 75.89 76.04 75.91 75.58 75.22
48.74 49.50 46.83 47.16 48.55 50.81 51.14 52.49 55.55 55.29 58.52 55.10 57.81 59.22 63.55 71.30 70.54 68.91 68.37 68.82 71.67 72.28 73.94 74.82 75.43 75.74 75.79 75.65 76.09 75.85 75.80 75.52 75.46 75.40 75.54 75.05 74.63 74.60 74.66 74.93 75.01 75.14 75.52 76.19 75.96 75.66 75.44 75.33 75.20
50.20 49.89 47.45 49.44 50.04 50.53 50.90 51.46 51.44 53.82 54.03 54.46 57.39 65.78 68.49 71.23 69.95 67.75 67.58 66.93 69.73 70.16 72.05 74.25 73.86 73.85 75.13 74.89 75.09 73.12 71.44 74.02 75.68 75.65 75.61 75.06 75.29 75.26 74.22 74.27 74.64 74.79 75.24 75.83 75.88 76.05 75.58 75.30 73.46
48.44 48.94 49.14 49.91 50.58 50.66 50.05 50.37 51.35 53.16 52.83 55.21 56.69 61.91 68.39 69.66 69.04 67.99 67.97 67.17 69.46 69.28 69.93 72.53 73.47 72.79 73.83 74.69 73.61 70.34 69.44 72.20 74.64 75.12 73.89 74.99 75.37 75.49 75.12 74.87 74.61 74.82 74.54 74.22 74.30 74.49 74.36 74.24 74.05
49.21 49.40 50.58 50.80 51.28 50.01 49.95 51.05 50.40 51.32 52.11 55.16 58.08 65.59 68.54 69.47 68.81 68.36 68.43 68.20 70.06 68.41 69.64 70.77 72.99 72.53 73.67 73.29 69.89 68.48 68.29 68.21 68.06 68.70 70.17 73.47 74.66 75.01 75.06 75.32 75.40 74.91 74.48 74.25 74.70 74.08 74.59 74.85 75.17
50.03 49.28 49.85 49.87 50.08 50.10 51.22 49.97 49.89 50.45 51.99 56.06 63.43 66.71 67.67 69.23 69.56 69.37 69.64 70.36 70.77 67.48 68.21 70.93 70.53 70.85 69.45 67.32 67.01 67.27 66.02 65.84 67.36 68.05 68.07 69.25 68.92 69.49 70.63 71.95 72.84 73.81 74.61 74.51 74.55 74.61 74.57 74.62 74.83
49.93 50.14 49.78 50.35 50.07 50.19 50.32 49.80 51.05 51.99 53.04 54.11 60.68 64.07 66.57 67.97 68.76 69.04 68.40 68.99 69.62 66.15 67.95 66.88 66.64 67.04 66.21 65.68 65.75 64.66 64.84 66.15 65.46 64.90 64.51 65.16 65.36 66.13 66.41 67.66 70.61 72.37 73.48 73.64 74.27 74.27 74.52 74.37 74.40
50.26 48.85 50.89 50.23 49.63 49.39 50.89 47.77 48.75 52.93 53.82 53.72 54.42 54.31 53.77 60.91 68.69 68.67 68.42 67.22 67.15 64.47 65.20 64.34 64.40 64.72 64.59 63.76 63.62 64.09 63.49 63.58 63.70 63.16 63.98 64.59 65.19 66.15 66.51 66.82 67.81 68.71 70.98 73.39 73.64 73.94 74.49 74.11 74.08
48.91 48.21 46.62 49.57 49.99 49.99 49.57 44.83 50.03 53.02 53.56 53.43 54.36 55.29 56.03 54.26 58.76 67.26 64.11 63.68 63.08 63.69 63.19 63.42 62.58 62.62 63.09 63.20 62.67 63.13 62.88 62.93 62.87 62.57 62.86 63.78 64.00 65.25 65.99 66.06 66.63 68.37 71.08 70.76 72.19 72.78 72.95 73.25 73.43
47.57 44.55 45.37 46.28 49.96 49.13 49.61 45.42 50.13 52.70 53.33 53.08 54.52 55.67 56.71 57.36 57.55 58.09 61.53 62.60 61.98 62.94 62.56 62.48 62.56 61.90 62.34 62.82 62.43 62.97 63.57 62.43 62.50 62.27 62.13 63.19 63.75 64.11 64.10 63.67 64.72 66.59 67.98 69.68 69.20 69.97 70.87 71.82 72.46
43.98 44.22 44.75 45.23 48.04 48.41 47.77 46.84 50.01 51.82 52.61 52.55 53.76 55.27 56.41 56.92 57.37 59.58 60.60 61.28 61.65 61.84 62.15 62.02 61.77 61.95 62.21 62.01 62.09 61.39 61.93 61.89 62.50 62.30 62.19 62.54 64.03 63.40 63.09 62.62 63.21 63.81 64.75 66.04 67.04 69.08 69.42 70.11 71.09
46.16 45.60 44.71 45.90 47.69 46.73 46.68 46.79 48.34 50.95 51.78 52.01 52.94 54.29 55.57 56.23 58.36 59.44 60.13 60.67 60.38 61.20 61.54 61.48 61.92 62.26 61.51 61.25 60.63 61.38 60.65 61.81 62.24 63.20 61.89 62.48 63.70 62.46 63.24 61.91 61.88 62.31 62.22 63.46 64.44 65.77 68.04 68.62 70.36
46.45 44.75 44.23 45.86 47.46 46.86 45.94 45.36 48.13 49.79 49.99 51.05 51.75 53.15 54.59 56.18 57.67 58.49 59.58 60.36 60.60 61.11 61.73 61.86 61.79 62.22 61.88 62.51 62.81 62.56 62.31 61.96 62.25 62.54 62.60 62.36 63.09 63.51 62.96 62.41 61.45 62.07 60.93 61.46 61.57 63.21 63.58 65.01 68.72
45.32 44.46 44.04 43.98 45.76 46.03 45.97 43.52 45.25 48.34 50.39 51.50 52.04 53.53 54.40 54.57 55.38 56.94 58.05 59.20 60.74 61.21 61.79 62.15 62.35 63.15 63.30 63.20 62.82 62.58 61.74 61.26 60.51 60.59 61.28 61.75 61.82 63.08 62.59 62.18 62.08 61.50 60.98 58.91 60.31 61.04 61.28 60.83 64.38
43.26 45.84 45.21 44.57 43.64 41.15 43.85 38.98 42.76 45.89 47.47 49.62 50.95 52.04 52.35 53.51 55.42 56.55 57.28 58.24 59.11 59.16 60.41 60.51 61.26 62.38 63.05 63.77 62.15 61.87 60.24 58.97 60.35 60.25 61.33 62.01 61.05 62.24 62.47 61.85 61.76 61.92 61.11 60.29 59.39 59.87 60.52 60.80 59.38
44.34 45.65 44.03 43.58 43.28 41.76 41.39 39.93 41.58 45.47 44.40 46.79 49.81 51.57 52.74 53.02 53.29 53.82 54.56 55.75 56.93 57.87 58.45 59.14 59.89 60.89 61.18 61.27 61.53 59.69 59.20 58.87 59.43 59.37 60.64 62.08 61.97 61.34 61.91 61.81 61.33 60.99 60.69 60.74 59.29 58.96 58.99 59.11 59.22
45.61 44.45 42.76 41.94 41.96 37.25 40.00 40.18 39.90 43.05 44.77 46.87 49.40 51.04 52.17 52.91 53.46 54.15 54.67 55.02 55.48 56.60 56.67 56.80 57.21 58.07 59.62 59.57 58.73 58.20 57.72 58.02 57.52 58.59 58.21 58.92 60.35 60.12 61.29 61.12 61.41 61.12 60.15 59.29 58.43 58.64 58.52 58.05 58.41
46.35 42.72 37.33 35.49 36.07 34.43 40.24 38.93 40.66 44.58 46.62 47.69 48.51 48.78 49.98 51.54 51.96 52.42 52.69 52.87 53.47 53.90 54.87 55.61 55.90 56.14 57.66 56.85 56.60 56.25 56.40 57.16 57.03 57.53 57.10 58.15 58.53 59.29 60.13 60.95 60.67 59.71 59.68 58.60 58.25 57.89 57.57 57.48 56.82
42.18 42.26 37.78 29.33 32.13 34.82 40.41 35.98 41.32 45.69 46.82 47.71 49.08 49.21 49.46 50.12 51.04 51.14 51.67 52.22 52.59 53.16 54.20 54.34 54.90 55.12 55.98 55.81 55.53 55.51 55.47 54.03 55.38 56.88 57.37 57.52 58.46 59.31 61.32 60.56 60.29 59.60 58.56 57.58 57.64 56.15 56.08 56.88 56.56
42.00 40.16 41.78 37.21 36.29 34.57 38.81 39.84 43.87 45.77 45.75 47.06 47.52 48.16 48.80 49.23 49.91 50.43 51.36 52.04 52.52 52.71 53.23 53.59 53.68 54.00 54.85 55.30 54.95 54.59 55.03 55.42 54.66 56.37 57.00 56.79 58.92 58.97 59.51 60.03 59.40 58.46 57.40 56.72 56.31 54.69 55.35 56.01 56.16
44.68 44.22 38.30 39.59 30.92 28.64 34.90 36.13 38.04 42.38 43.82 44.98 45.70 46.70 47.73 49.04 49.71 50.32 50.84 51.38 52.12 52.57 52.82 52.99 53.36 53.16 53.86 54.33 53.68 53.29 54.42 54.44 54.60 54.54 53.96 55.50 57.66 58.97 58.73 58.44 57.78 56.90 55.88 55.36 55.22 54.20 54.77 54.61 54.55
42.49 40.96 39.84 39.35 38.31 31.91 29.70 35.30 44.72 43.92 44.94 45.25 46.66 47.45 48.16 48.37 48.71 49.50 50.33 51.09 51.45 51.98 51.60 51.79 51.93 52.28 52.26 52.87 52.65 52.29 52.01 52.43 52.81 52.32 52.84 53.70 56.12 56.54 56.39 55.98 55.46 54.51 53.93 54.49 54.13 54.07 53.82 53.43 54.14
43.90 41.87 40.78 37.47 32.91 36.90 35.16 34.51 45.83 46.28 46.34 46.26 46.33 47.42 47.55 48.21 48.69 49.41 49.69 49.83 50.36 50.83 50.90 50.94 51.24 51.27 51.72 51.35 50.59 49.77 49.76 50.18 50.39 51.09 51.56 52.86 53.52 55.06 54.61 54.36 53.75 53.01 52.85 53.50 53.09 52.62 52.69 52.39 52.51

GFSSGP_sfc_wetblb_234.txt.gz
Wetbulb
67.97 69.54 67.86 64.51 58.89 61.62 56.00 57.25 63.64 62.56 63.37 66.30 66.85 64.68 63.32 64.71 62.97 60.94 74.50 75.90 75.55 76.67 78.39 76.63 77.06 75.97 76.61 77.06 77.79 77.89 77.67 77.52 77.47 77.24 76.99 77.24 77.49 77.04 76.86 77.29 77.24 76.99 76.82 76.57 76.42 76.09 75.84 75.61 75.39
63.93 64.69 64.29 61.96 57.80 53.51 54.07 60.24 59.48 63.47 65.61 66.98 66.82 65.93 64.40 63.55 67.55 69.38 72.91 75.08 75.68 76.69 78.27 77.67 76.66 76.16 76.31 76.54 77.11 77.41 77.59 77.46 77.39 77.16 77.14 77.14 77.01 76.84 76.48 76.66 76.98 77.14 76.85 76.79 76.43 76.12 75.84 75.89 75.42
64.27 64.25 61.00 60.49 58.41 52.30 53.39 59.25 61.02 64.39 66.20 65.93 65.07 66.95 65.52 65.28 68.36 70.54 74.19 75.53 76.29 76.74 77.83 78.75 76.94 76.03 75.81 75.86 76.54 77.09 77.09 77.19 77.21 77.22 76.99 76.79 76.56 76.31 76.49 76.50 76.36 76.65 77.00 76.96 76.74 76.57 76.18 75.62 75.35
62.75 60.95 61.64 56.79 54.14 57.08 58.06 60.93 62.77 64.08 65.94 67.17 66.32 63.66 67.67 70.27 70.16 73.36 74.85 75.66 75.68 76.44 77.27 77.23 77.01 76.21 75.91 75.63 75.66 76.23 76.74 77.01 77.24 77.01 76.79 76.61 76.38 76.13 76.08 76.03 75.91 75.85 76.03 76.53 76.73 76.59 76.42 76.22 75.95
60.55 60.41 57.76 55.90 54.33 57.08 60.72 62.32 63.92 62.64 63.92 65.01 66.35 63.70 65.05 70.50 73.54 74.39 75.39 75.84 75.75 75.88 76.52 77.03 77.19 76.71 75.96 75.96 75.48 75.45 75.71 76.49 76.49 76.63 76.17 75.91 75.97 75.77 75.62 75.40 75.34 75.37 75.53 75.69 75.76 75.86 75.95 75.88 75.55
57.04 58.63 53.56 53.01 53.94 57.26 59.21 63.05 63.00 63.14 64.49 65.50 65.69 63.65 65.88 72.68 72.63 73.36 75.37 76.21 76.36 75.59 76.09 76.90 76.85 76.94 76.58 76.46 76.06 75.90 75.63 75.36 75.55 75.27 75.16 75.08 75.00 74.98 75.04 75.21 75.18 75.17 75.34 75.54 75.77 75.82 75.47 75.25 75.08
55.90 55.19 52.79 52.60 52.95 54.31 56.58 61.44 61.35 61.94 63.24 63.73 67.31 61.48 68.33 71.47 72.58 72.99 73.92 75.04 76.32 75.12 75.63 76.92 77.32 77.19 76.56 76.35 76.57 76.55 76.10 75.75 75.43 75.43 75.16 74.72 74.41 74.28 74.43 74.66 74.91 75.49 75.88 75.95 75.93 76.08 75.88 75.43 75.18
56.84 56.29 51.65 52.03 51.59 53.18 57.47 58.89 60.09 62.37 61.24 68.63 63.97 58.25 65.04 71.53 72.82 72.72 73.09 73.86 75.48 73.75 74.31 75.89 77.21 76.71 76.85 76.19 76.21 76.12 76.08 75.55 75.67 75.82 75.75 75.55 75.38 75.21 74.81 75.23 74.95 75.17 75.45 75.68 75.91 75.96 76.18 76.08 75.84
55.26 53.02 51.62 51.16 52.87 54.35 57.05 56.09 62.85 62.76 62.21 61.12 60.96 61.67 66.30 73.78 73.00 72.07 71.12 71.62 72.67 73.17 74.94 75.24 75.22 76.52 76.41 76.49 76.35 75.88 75.58 75.81 75.88 75.58 75.51 75.18 74.17 75.20 74.85 75.01 74.94 75.18 75.18 75.73 76.23 76.10 75.82 75.80 75.55
54.54 54.07 51.58 54.41 55.28 55.05 55.45 55.89 59.37 58.70 59.08 60.06 59.33 64.32 68.33 72.89 71.49 69.97 69.25 69.61 70.94 72.20 74.20 75.20 75.54 75.53 75.22 74.93 75.99 75.65 75.79 76.04 75.81 75.67 76.16 75.72 75.66 75.67 74.55 74.67 74.93 75.01 75.33 75.85 76.17 76.15 76.07 75.51 73.88
54.84 52.19 53.68 53.77 54.95 55.13 53.89 53.72 56.16 55.82 56.06 57.31 56.18 58.81 66.18 70.81 71.50 70.16 70.25 69.50 70.82 72.23 73.59 75.28 75.47 75.74 75.07 74.81 74.99 74.11 73.40 75.29 76.95 77.92 77.77 77.65 77.32 77.02 76.52 76.10 76.14 76.05 75.01 75.42 75.52 76.00 75.53 75.03 75.20
52.31 53.85 53.99 53.58 53.55 53.14 52.59 54.12 53.48 54.92 55.31 57.28 58.37 64.19 63.49 65.46 65.06 67.67 67.55 69.58 70.89 71.20 72.11 74.69 75.52 75.16 76.89 76.70 74.49 73.44 72.36 71.63 72.04 72.23 73.09 75.94 75.82 77.33 76.76 76.64 76.95 77.27 77.29 76.34 76.30 75.71 75.55 75.66 75.82
52.60 52.66 53.27 53.52 53.69 53.79 54.52 52.75 53.29 55.29 56.92 58.89 63.67 64.75 64.52 64.80 64.21 65.48 70.13 73.13 72.93 71.67 72.29 73.66 74.00 75.09 74.96 73.32 71.78 69.30 68.62 68.73 69.82 70.71 70.32 71.14 70.90 71.98 72.14 73.49 74.12 74.90 75.56 76.64 76.26 76.53 76.15 76.07 76.11
53.51 53.09 53.10 53.53 53.55 53.48 53.29 53.82 54.17 56.14 58.26 57.87 58.72 60.00 62.09 64.53 67.23 68.15 68.92 71.55 72.18 71.02 71.95 71.55 71.35 71.43 71.10 70.43 69.65 68.21 68.68 68.17 67.64 67.70 67.78 68.25 69.24 70.28 68.97 68.70 68.56 70.80 72.74 73.73 74.73 75.48 75.30 75.13 74.73
54.48 52.03 53.28 53.26 52.84 52.02 54.05 52.14 52.49 56.53 58.24 57.27 58.28 59.40 60.10 60.69 60.41 63.68 70.04 71.27 70.80 70.46 70.34 69.80 68.70 68.76 68.43 68.31 68.06 68.13 67.16 67.41 66.64 65.68 66.31 66.70 67.91 68.55 69.01 67.45 67.59 68.36 70.03 70.90 71.94 73.37 74.58 74.77 74.62
52.15 52.24 49.92 52.80 52.86 52.22 52.49 49.53 53.55 56.99 57.40 57.29 58.30 59.31 60.05 61.42 61.61 62.56 66.85 69.56 69.15 69.53 68.72 68.03 66.63 66.82 66.96 67.27 67.14 66.90 67.14 67.18 65.88 65.70 65.97 65.06 65.24 67.30 67.10 66.29 66.93 68.84 69.13 69.78 69.99 69.59 68.75 70.52 71.26
51.79 48.33 48.83 49.91 53.17 52.47 52.41 50.37 53.72 56.43 56.83 56.81 58.17 59.44 60.29 61.18 62.29 63.01 64.00 66.18 67.74 67.60 67.44 66.48 66.57 66.11 66.11 66.18 66.24 66.52 66.69 66.61 65.86 65.67 65.24 65.34 65.11 64.82 65.53 64.60 65.10 66.71 66.34 67.68 69.06 69.60 70.83 69.60 68.69
47.35 47.41 48.56 48.65 50.92 51.75 51.08 51.07 53.26 55.29 55.82 56.17 57.50 58.87 59.94 60.51 61.23 63.05 63.49 64.01 65.42 66.41 66.48 65.63 65.66 66.03 66.05 65.52 65.73 65.43 65.00 65.22 66.17 65.70 64.80 65.13 65.60 64.40 64.85 65.34 65.17 64.83 63.90 64.21 66.08 68.09 69.59 70.34 70.49
49.96 48.76 47.84 49.65 51.01 50.54 50.53 50.75 52.00 54.06 54.88 55.33 56.38 57.89 58.93 60.06 62.18 63.16 63.79 64.33 64.36 65.05 64.95 65.18 65.01 65.13 65.32 63.93 63.40 63.25 63.94 64.83 65.52 66.78 65.71 65.17 65.16 65.21 66.05 64.40 65.06 64.74 64.25 64.17 64.82 64.35 65.23 66.23 69.10
49.50 48.26 48.13 49.83 50.47 50.36 50.67 49.53 51.65 53.08 53.48 54.81 55.50 56.58 57.53 58.86 60.39 61.93 62.93 63.63 63.64 63.91 64.32 64.41 64.29 65.03 65.40 65.13 66.21 64.61 65.00 65.00 64.80 65.54 65.82 65.61 65.18 65.79 65.37 65.21 64.49 65.35 62.77 64.61 63.83 64.17 61.89 62.58 67.84
49.25 48.21 47.87 47.68 49.73 50.77 49.78 48.76 49.67 52.07 53.61 54.24 55.28 56.13 56.84 57.26 57.94 59.94 61.55 62.60 63.49 63.30 64.02 65.10 65.80 66.49 66.85 66.73 65.71 65.90 65.69 65.48 63.79 64.21 64.38 65.15 65.04 64.96 65.86 65.24 64.53 64.43 63.70 61.92 63.14 62.91 62.39 59.70 62.24
47.05 49.34 48.30 47.83 47.34 44.48 49.59 42.54 48.94 50.73 51.15 52.34 53.42 54.60 55.19 56.03 57.37 58.00 58.93 59.76 60.37 61.03 62.63 63.67 64.36 64.58 63.56 64.52 63.75 63.71 62.28 61.53 62.98 63.28 63.79 63.79 65.05 64.92 64.71 65.66 64.84 64.86 62.70 63.27 62.15 62.63 61.59 61.53 59.33
47.17 49.08 47.66 47.29 46.37 46.28 46.09 43.60 47.75 50.48 48.88 50.85 52.65 53.84 54.82 55.81 56.25 56.48 57.07 58.17 58.84 59.51 59.65 60.84 61.50 61.92 62.76 63.77 63.27 60.98 59.59 59.37 61.14 61.38 62.80 63.93 64.60 65.01 64.66 64.70 64.80 64.20 63.25 63.17 62.54 61.92 62.41 60.18 59.35
49.37 47.82 47.41 47.06 45.79 41.12 44.96 43.18 44.26 47.13 49.26 50.98 52.25 53.48 53.65 54.68 55.55 56.26 57.23 57.67 57.76 58.41 58.53 59.27 59.66 60.17 61.38 61.19 60.64 59.88 58.85 58.97 56.70 58.48 57.21 58.87 60.64 62.06 64.23 64.14 64.15 64.24 63.83 63.10 62.28 62.10 61.40 61.11 60.64
48.08 46.06 41.64 39.99 40.29 39.16 45.23 42.03 44.40 49.32 50.38 51.31 51.91 52.71 53.62 54.18 54.47 54.92 55.24 55.46 56.40 56.70 57.09 57.26 57.92 58.18 59.51 59.88 60.26 59.96 59.68 59.52 58.72 58.46 57.55 58.71 58.22 59.28 63.84 64.27 63.88 63.12 63.41 63.15 62.68 61.95 61.38 60.97 59.90
45.50 45.10 41.35 33.49 36.68 38.97 44.35 39.77 45.94 50.39 51.08 52.16 52.68 52.87 53.48 53.95 54.75 54.53 55.04 55.56 55.54 56.21 56.61 56.75 56.71 56.40 57.44 58.19 58.50 59.51 59.48 57.78 57.31 58.32 57.35 57.15 57.44 58.60 62.36 62.42 63.53 63.51 63.34 62.93 62.04 60.69 60.06 60.56 59.53
45.47 45.70 46.71 42.28 43.40 39.75 43.68 44.21 48.38 49.64 49.62 50.38 50.96 51.66 52.34 53.17 53.73 53.95 54.57 55.31 55.36 55.70 55.96 55.63 55.59 55.45 56.18 56.63 57.41 58.04 58.73 58.23 57.17 57.59 58.03 56.35 59.21 57.57 59.06 60.90 62.06 62.79 62.57 62.06 61.52 59.43 59.43 59.81 59.96
47.98 48.13 43.06 44.61 34.53 33.27 40.05 40.02 41.43 46.08 47.77 49.53 49.94 50.84 51.79 52.76 52.96 53.05 53.35 53.98 54.47 54.91 55.09 55.42 55.62 55.46 55.94 56.23 56.31 56.34 57.01 57.08 56.62 55.86 55.39 56.27 56.85 57.28 57.14 58.15 60.02 60.43 60.99 60.07 60.09 58.86 59.10 58.35 58.25
46.16 45.43 44.58 43.60 41.47 36.11 34.95 39.80 47.39 46.64 48.29 48.55 49.89 50.89 51.53 51.73 51.72 52.26 52.58 53.33 53.78 54.23 54.38 54.67 54.90 54.92 54.64 55.08 55.71 55.65 55.28 54.75 54.46 53.77 54.22 54.78 55.32 55.45 55.48 55.80 57.82 58.88 58.04 57.98 57.46 57.63 57.43 56.86 57.30
47.40 45.63 44.35 41.71 38.12 41.72 40.11 39.52 49.19 48.56 49.76 50.31 49.99 50.71 51.46 51.66 51.88 52.01 51.91 52.38 52.89 53.26 53.60 53.63 54.17 53.48 53.83 54.31 53.18 52.63 52.43 52.21 52.42 50.88 51.22 52.66 53.12 54.07 53.89 54.93 56.06 55.59 55.64 56.11 55.75 55.61 56.36 55.97 55.58

GFSSGP_sfc_wetblb_237.txt.gz
Wetbulb
68.87 69.22 69.70 66.52 59.90 59.80 56.25 57.29 63.82 61.67 62.08 66.44 67.47 66.01 64.89 66.06 64.01 61.78 75.83 76.03 75.90 76.88 76.48 74.46 75.77 76.30 77.06 77.88 77.98 77.73 77.45 77.35 77.20 77.22 77.15 77.40 77.58 76.91 76.99 77.14 76.90 76.83 76.75 76.39 76.34 76.14 75.75 75.53 75.29
68.46 65.95 66.90 63.64 57.75 54.02 53.78 60.61 58.22 61.76 65.01 66.69 67.42 66.99 66.39 64.71 69.14 72.32 73.49 75.71 75.61 76.55 77.57 76.11 75.96 76.13 76.44 77.25 78.00 77.85 77.88 77.60 77.45 77.15 77.30 77.22 77.02 76.61 76.52 77.06 77.19 76.90 76.87 76.74 76.43 76.13 76.01 75.71 75.34
66.26 65.81 61.80 59.88 57.71 54.02 56.10 56.97 60.95 62.86 65.03 65.25 64.95 67.61 66.87 66.17 70.66 72.17 75.24 75.91 76.43 75.73 77.30 78.02 76.34 76.04 76.16 76.34 77.10 77.77 77.70 77.60 77.40 77.07 77.04 76.87 76.48 76.38 76.30 76.47 76.94 77.05 76.98 76.73 76.42 76.26 75.76 75.46 75.29
64.86 64.05 62.42 55.89 55.81 55.86 58.63 57.67 62.60 62.42 64.03 64.70 64.64 63.98 68.79 71.38 71.12 74.01 75.67 75.69 75.08 75.82 78.91 77.34 76.59 75.94 76.01 75.98 76.42 76.79 77.02 77.32 77.35 76.94 76.61 76.07 75.55 75.66 75.97 75.88 76.05 76.22 76.70 76.74 76.50 76.29 76.28 75.80 75.37
63.50 61.51 56.03 55.36 55.00 57.99 59.68 61.89 62.96 62.01 62.61 63.41 64.45 62.66 66.47 71.41 74.68 75.53 76.17 75.53 74.09 74.59 77.53 76.63 76.62 75.91 75.86 75.83 75.93 76.51 76.94 77.35 77.22 76.86 76.17 75.73 75.48 75.01 74.95 75.22 75.51 75.53 75.76 75.95 75.97 75.95 75.81 75.77 75.72
58.64 59.48 53.54 52.24 53.81 57.32 58.66 62.12 62.75 61.89 62.92 62.86 62.79 64.04 67.14 72.54 73.09 75.37 76.67 75.98 75.81 75.16 76.13 76.73 76.70 76.39 75.89 75.66 75.71 76.32 76.67 76.64 76.77 76.71 76.40 75.80 75.40 75.24 75.26 75.02 75.07 75.04 75.34 75.45 75.79 75.65 75.66 75.38 75.45
57.58 56.15 52.81 52.99 53.73 55.24 57.66 61.92 61.38 60.80 62.69 59.63 63.17 61.96 69.02 71.81 73.63 75.79 75.72 75.69 75.50 75.40 75.67 76.07 76.40 76.85 76.14 76.06 75.89 75.59 75.96 76.16 76.27 76.04 76.04 75.77 75.48 75.24 75.10 75.03 75.15 75.27 75.50 75.68 75.75 75.84 75.93 75.53 75.44
57.45 55.92 52.92 53.45 53.43 53.88 57.98 59.82 60.67 61.64 60.14 63.58 61.82 59.12 61.38 66.77 73.07 73.97 74.13 75.19 74.48 74.03 74.92 76.50 76.50 76.30 75.45 74.61 76.01 76.21 76.06 76.11 76.01 76.06 75.86 75.76 75.64 75.46 74.88 75.34 75.19 75.38 75.65 75.83 76.04 76.21 76.39 76.46 76.11
58.86 52.74 52.18 53.05 53.14 55.82 58.37 57.48 62.21 61.52 61.91 60.48 60.50 61.28 67.12 72.66 72.54 71.66 72.08 73.20 72.91 72.82 74.57 75.75 75.90 76.34 76.16 75.33 74.98 75.76 75.51 75.56 75.81 75.44 75.59 75.20 73.44 73.66 73.51 73.86 75.45 75.38 75.91 76.01 76.14 76.37 76.31 76.06 75.98
55.55 53.70 53.73 56.66 57.05 56.35 56.78 57.38 59.43 58.63 58.69 59.75 58.78 62.33 66.49 70.96 71.81 69.86 68.93 69.05 70.51 72.00 74.18 74.89 75.14 75.69 76.04 75.68 76.43 76.02 75.56 75.34 75.17 74.97 75.29 73.81 74.71 76.60 75.32 75.57 76.27 75.99 75.94 75.86 76.11 76.18 76.11 75.69 73.52
56.27 53.56 55.61 55.04 56.83 57.25 56.11 55.02 56.95 56.84 56.34 57.93 56.55 59.77 63.48 67.58 69.74 68.75 67.52 67.96 69.81 72.25 73.81 74.63 76.19 76.15 75.29 75.16 75.63 75.22 75.15 76.34 76.98 77.09 77.48 78.39 77.60 77.96 76.00 75.08 75.15 75.06 74.09 74.07 74.61 74.61 74.08 73.96 74.11
53.07 55.39 55.16 54.98 55.16 54.90 53.87 56.08 54.93 56.17 55.78 58.02 59.31 62.51 62.72 63.32 64.86 64.42 65.49 68.26 69.63 70.38 72.41 75.37 76.07 76.11 76.70 76.67 75.62 74.84 73.11 72.59 73.50 73.92 74.19 76.24 75.36 76.14 75.71 75.14 76.37 76.75 75.99 75.61 74.98 75.48 74.83 75.85 74.51
53.59 53.93 54.44 54.82 54.67 54.84 55.26 54.02 55.00 55.90 57.70 59.05 61.16 60.65 62.38 63.95 64.75 64.42 65.64 69.87 72.61 71.69 73.35 74.29 76.39 76.69 77.35 76.43 74.48 73.44 71.23 69.71 70.04 70.16 70.10 70.16 69.58 71.35 70.64 72.00 73.01 73.77 74.64 74.09 74.49 71.55 71.20 73.59 72.87
54.86 53.75 53.75 54.38 54.87 54.67 54.00 54.09 55.43 57.04 58.58 58.05 58.61 59.53 60.60 61.36 62.48 64.26 66.89 67.52 72.57 73.29 73.40 74.26 74.18 74.95 74.76 74.18 72.66 70.66 69.74 68.88 68.87 67.98 68.02 68.44 68.92 70.24 67.78 67.58 67.26 67.24 68.83 70.86 72.02 72.32 73.52 70.52 71.81
54.34 52.24 53.59 53.86 54.09 53.30 55.21 52.82 53.71 57.41 58.51 57.79 58.40 59.36 60.35 61.22 63.22 63.57 64.35 68.68 72.19 73.15 72.75 71.20 70.53 71.01 71.45 70.65 69.71 69.10 68.48 67.49 66.91 66.76 67.62 67.74 68.27 69.07 69.58 66.60 67.00 67.72 69.34 68.45 68.92 69.18 69.93 70.53 71.14
52.88 53.47 50.78 54.12 53.98 53.91 53.84 50.54 54.81 57.56 57.53 57.26 58.34 59.27 60.47 63.08 64.11 64.93 65.07 69.31 71.41 71.06 70.78 70.64 69.95 69.43 68.52 68.77 68.99 67.66 67.42 67.45 67.14 67.22 66.84 66.23 65.96 66.69 68.81 64.91 65.77 67.00 67.57 66.56 67.69 68.22 67.40 66.98 66.33
52.54 49.08 50.38 51.56 54.36 53.85 53.15 52.33 55.73 57.61 57.55 57.09 58.39 59.56 60.53 62.11 63.96 65.09 65.23 65.59 68.48 69.95 69.70 67.93 67.52 67.24 66.85 67.56 68.10 67.97 67.91 67.09 67.15 66.60 66.14 66.02 65.49 65.07 66.31 64.96 64.89 66.93 64.19 64.67 65.86 65.98 67.54 67.49 67.97
49.64 49.38 49.96 49.77 53.31 53.17 52.17 52.56 55.23 56.82 56.87 56.98 58.06 59.17 60.31 61.27 62.52 64.65 65.19 65.79 66.55 67.93 68.51 67.38 67.75 67.05 67.54 67.55 67.53 66.77 65.67 65.74 65.89 66.03 65.53 66.17 66.14 65.28 66.22 65.53 66.77 66.61 64.34 64.07 65.20 67.03 65.87 66.01 65.81
52.25 50.30 49.53 51.52 53.53 51.94 51.68 52.34 54.11 56.21 56.34 56.36 57.00 58.10 59.12 60.09 62.89 64.24 65.09 65.52 66.15 66.80 66.95 66.95 66.57 67.07 66.74 65.06 63.70 63.90 63.38 64.65 64.22 64.96 65.71 66.08 66.17 66.25 67.07 65.46 66.27 66.24 66.12 66.04 66.31 64.90 65.66 62.45 64.75
51.36 50.08 50.02 51.52 52.67 51.86 51.78 51.92 54.32 55.26 55.60 56.55 56.54 56.94 57.57 59.05 60.81 62.35 63.66 64.77 65.21 65.77 66.46 66.46 66.91 67.89 67.04 65.93 66.45 65.94 65.48 65.06 65.54 66.02 67.05 66.58 66.09 66.24 66.41 66.95 67.15 68.51 64.61 68.16 65.60 65.30 62.59 62.22 63.28
51.40 49.84 50.28 49.64 51.95 53.14 51.61 50.15 52.80 54.77 55.57 55.88 56.38 56.99 57.48 57.52 58.17 59.53 60.65 61.69 62.95 63.82 64.86 65.86 66.29 66.82 66.95 66.83 65.86 66.80 67.10 67.31 64.60 66.30 65.68 67.92 66.37 66.49 66.76 66.12 66.58 67.32 67.07 63.12 65.76 65.15 64.11 59.98 61.89
48.08 52.13 50.45 48.98 48.62 45.46 51.96 44.64 51.11 53.75 53.72 54.41 55.03 55.40 56.64 57.11 57.95 58.66 59.04 59.52 60.10 60.68 61.81 62.52 63.42 63.94 64.47 65.09 63.40 64.24 62.07 60.86 63.05 63.95 64.90 65.74 66.03 65.77 65.91 66.32 66.53 68.36 65.37 66.25 65.24 63.76 63.58 63.78 60.28
49.09 50.44 48.88 48.46 47.25 47.22 47.21 45.50 49.63 53.27 51.48 53.08 54.55 55.72 56.42 57.49 57.32 57.44 58.20 58.99 59.51 59.99 59.81 60.60 61.62 62.18 62.89 63.68 63.63 61.93 62.92 61.50 62.19 61.82 63.19 66.20 65.75 66.21 63.88 66.65 67.11 67.03 65.03 65.88 67.39 65.33 64.57 62.50 60.24
50.99 49.35 49.78 49.66 47.89 42.67 47.16 46.61 44.79 49.58 51.38 51.63 54.69 55.15 55.66 56.53 57.06 57.56 58.49 58.96 58.57 59.14 59.39 59.78 60.17 61.64 61.85 61.71 62.20 63.85 62.69 61.52 59.93 61.10 60.00 59.70 60.08 61.31 63.72 63.86 66.94 67.47 65.89 65.70 64.90 65.45 64.51 63.44 62.35
49.99 48.12 43.33 42.20 42.54 41.95 47.48 44.61 46.13 52.11 52.75 53.03 52.95 54.58 55.48 56.44 56.42 56.58 56.60 56.71 57.53 57.82 58.66 58.82 59.29 58.97 60.05 59.40 60.05 61.04 62.78 63.51 62.37 61.03 58.96 61.05 58.27 59.08 62.05 66.02 65.13 62.67 65.15 64.75 65.30 65.41 64.71 63.57 61.83
47.32 46.54 42.91 36.42 38.87 41.28 46.44 42.36 48.07 53.17 53.77 53.70 54.23 54.52 55.43 55.39 55.82 55.73 55.69 56.08 56.16 56.82 57.43 57.59 57.85 57.60 58.16 58.32 59.34 61.10 61.25 58.33 59.13 60.32 59.29 58.16 58.13 58.48 61.73 62.54 63.41 64.40 64.56 64.57 65.24 62.90 62.38 64.29 62.08
47.57 47.16 48.21 43.84 46.10 42.18 44.53 46.03 51.41 52.05 51.62 52.52 52.85 53.46 53.23 53.83 55.07 54.88 55.27 55.57 55.71 56.13 56.36 56.43 56.72 56.60 57.35 58.47 60.32 60.88 60.85 60.62 59.49 61.98 62.03 58.10 60.62 57.81 60.17 61.41 62.10 61.45 61.50 63.43 64.52 62.84 62.67 63.05 62.86
48.54 49.82 44.78 46.79 37.10 35.87 41.66 42.80 44.76 48.32 49.74 51.02 51.53 52.38 53.39 54.16 54.17 54.17 54.38 54.73 55.48 55.56 56.07 56.31 56.42 56.28 56.81 56.83 57.27 57.77 59.37 59.68 58.32 56.26 56.01 56.01 56.15 57.34 57.62 58.14 59.49 60.60 61.00 61.80 63.19 61.45 62.45 60.34 60.98
48.11 47.15 47.32 46.10 44.96 38.69 37.43 41.98 50.14 49.37 50.29 50.00 51.30 52.56 53.45 52.28 52.40 53.23 53.68 54.52 54.57 54.45 54.22 54.72 54.98 55.07 55.38 55.89 56.97 57.59 57.10 56.25 56.04 55.35 54.90 54.73 54.82 54.88 54.95 55.21 55.34 55.82 58.20 60.13 60.95 62.11 60.02 58.58 58.48
48.76 47.34 46.35 43.45 41.53 44.41 42.74 42.41 51.84 51.39 51.83 52.16 52.07 52.75 52.42 53.04 52.78 52.90 52.81 52.83 52.62 52.65 53.28 53.77 54.92 54.08 54.60 55.29 55.11 54.53 54.31 54.13 53.97 53.20 53.53 53.56 53.15 53.91 53.80 53.92 53.93 53.67 55.99 58.20 58.24 57.43 54.81 54.82 56.95

GFSSGP_sfc_wetblb_240.txt.gz
Wetbulb
67.47 66.31 67.77 66.37 58.24 59.09 53.52 56.00 59.86 57.27 58.02 64.84 65.98 65.37 65.01 65.73 64.25 60.51 75.08 75.18 75.63 73.83 72.49 74.17 77.43 77.81 77.86 77.84 77.36 77.03 77.16 77.03 77.16 77.08 77.28 77.59 77.51 77.51 77.43 77.28 77.30 76.78 76.58 76.35 76.30 75.99 75.59 75.45 75.30
63.21 66.78 65.23 62.72 55.94 52.24 50.29 58.83 56.85 60.09 62.52 65.82 66.22 65.83 65.82 64.21 70.55 71.15 71.53 74.26 75.70 75.15 74.35 73.04 77.08 77.28 77.66 77.84 77.89 77.51 77.49 77.33 77.26 77.11 77.18 77.21 77.11 77.21 77.31 77.33 77.17 76.80 76.66 76.40 76.16 76.07 75.82 75.59 75.17
65.20 64.79 60.58 58.09 56.31 52.98 53.35 59.16 59.60 61.18 64.02 63.89 63.99 67.33 66.38 66.00 71.06 72.10 73.80 75.07 74.37 75.63 75.24 75.03 76.75 76.88 77.13 77.61 77.76 77.81 77.71 77.48 77.21 76.96 77.00 77.03 76.70 76.70 77.00 77.41 77.37 76.76 76.58 76.48 76.33 76.02 75.57 75.40 75.25
64.82 63.45 61.64 55.22 54.12 57.38 56.73 59.14 59.85 61.17 63.21 64.31 65.78 62.48 68.11 70.93 71.66 73.13 74.01 74.02 73.48 76.93 75.57 75.75 76.68 76.38 76.35 77.13 77.59 77.84 77.66 77.36 77.16 76.85 76.90 76.65 76.42 76.27 76.45 76.67 76.94 76.82 76.69 76.65 76.44 76.31 76.09 75.71 75.34
62.96 60.38 55.00 53.67 53.84 57.74 60.08 61.30 61.89 60.72 59.57 61.41 64.72 63.56 64.89 70.04 74.26 74.32 75.16 74.10 72.03 76.34 75.80 75.31 76.63 76.02 76.02 76.30 76.75 77.38 77.43 77.43 77.31 76.90 76.77 76.54 76.24 75.79 76.06 76.08 75.97 75.95 76.23 76.31 76.42 76.47 76.39 76.19 75.93
57.65 58.73 52.04 50.68 53.50 57.39 58.60 62.23 61.48 60.31 60.29 61.60 63.01 61.36 60.27 64.79 71.47 73.81 74.69 73.70 75.20 75.32 75.33 75.21 76.17 76.38 76.23 76.00 76.25 76.90 77.13 77.23 77.26 77.06 76.52 76.44 76.12 75.76 75.60 75.62 75.69 76.01 76.01 76.26 76.39 76.44 76.07 75.92 75.85
55.77 54.79 51.51 51.59 53.84 55.57 57.38 60.43 60.39 60.51 58.33 59.21 66.48 60.85 59.67 62.95 69.44 74.82 74.11 73.89 73.97 73.82 74.90 74.84 74.92 75.32 76.23 76.12 76.12 76.35 76.70 76.65 76.68 76.75 76.50 76.38 76.20 76.12 76.10 75.97 75.96 75.86 76.11 76.19 76.22 76.42 76.45 76.18 75.87
56.77 54.18 50.84 52.49 51.82 53.57 57.70 58.91 61.94 60.52 59.31 62.85 60.87 60.08 57.46 62.22 70.69 73.00 73.43 73.40 73.34 73.38 75.01 74.70 75.21 73.71 73.19 73.94 76.07 76.00 76.17 76.15 76.10 76.08 75.98 75.85 75.95 75.77 75.77 75.27 75.25 75.77 76.08 76.43 76.28 76.40 76.55 76.55 76.16
57.98 51.01 49.65 52.46 53.71 55.19 58.07 56.85 61.21 61.44 60.28 60.66 60.40 66.42 65.09 70.22 71.50 70.99 71.61 71.01 72.93 72.50 74.01 75.38 74.61 74.55 73.37 71.85 74.40 75.82 75.21 75.40 75.55 75.37 75.60 74.95 72.97 72.45 72.77 73.77 73.78 75.01 75.82 76.15 76.15 76.30 76.12 76.22 76.04
54.53 51.67 52.19 56.06 56.39 56.02 56.67 56.27 57.50 57.35 58.46 57.40 58.77 68.53 69.51 69.53 69.31 67.21 67.82 70.80 71.20 65.82 65.38 69.14 75.05 75.25 74.90 73.83 73.84 73.81 73.15 73.06 72.94 72.74 73.60 73.33 72.55 73.07 73.81 74.70 74.38 75.41 75.37 75.42 75.75 75.87 75.87 75.77 72.99
55.15 52.14 55.40 55.52 56.27 56.57 55.45 54.64 56.90 55.89 54.58 57.23 55.36 59.81 65.07 66.95 67.58 66.01 67.15 63.15 66.50 65.89 63.71 63.40 72.03 77.18 75.63 75.24 74.76 75.23 75.38 74.51 74.99 75.55 75.87 75.83 76.01 77.27 76.10 74.36 74.26 74.16 74.89 73.66 73.37 73.33 73.09 66.23 65.22
52.10 55.28 55.05 54.70 54.91 54.50 53.55 55.58 54.82 55.02 54.91 58.18 60.40 61.78 62.63 63.32 63.96 64.32 61.84 60.52 64.52 67.06 64.42 64.05 70.87 76.50 74.80 71.85 71.94 73.06 75.07 75.82 76.31 76.89 75.81 76.14 75.71 75.18 74.70 74.04 75.55 73.68 73.10 72.78 71.03 66.43 65.56 66.44 66.23
52.86 54.10 54.45 54.75 54.25 54.65 55.08 53.88 54.74 54.78 57.00 58.74 60.30 60.77 61.20 61.86 62.53 63.44 65.68 66.39 67.54 63.12 64.50 69.83 73.84 77.56 77.28 76.86 74.39 74.62 74.06 72.60 72.24 73.64 70.56 70.18 70.82 70.71 69.86 69.42 69.40 69.16 69.60 71.73 71.93 68.06 68.53 66.29 66.06
55.37 53.83 53.67 54.20 54.32 54.24 53.31 53.26 54.79 55.92 57.35 57.94 58.26 58.90 59.67 60.46 62.35 64.47 64.70 70.70 73.02 73.35 73.57 73.85 73.91 75.93 76.16 72.70 75.45 72.09 73.64 71.36 71.41 69.86 69.25 70.89 70.09 70.02 68.88 68.47 68.50 67.88 67.81 67.24 66.89 68.07 69.51 68.81 69.71
54.46 51.24 52.71 53.24 53.59 52.97 54.37 52.00 52.80 56.68 57.63 57.42 58.19 59.14 60.30 62.92 63.78 63.65 64.52 68.63 71.23 72.50 73.45 72.59 72.58 71.50 72.21 72.94 72.82 72.86 71.91 69.57 69.30 68.09 68.67 68.20 68.42 68.66 69.83 68.20 68.46 66.49 66.59 67.05 67.47 68.57 68.58 67.29 67.23
52.05 52.66 49.43 53.30 53.64 53.65 52.71 48.58 55.02 56.97 56.79 56.83 57.90 58.93 60.86 62.52 63.40 64.15 64.52 66.25 69.39 71.20 71.48 71.59 69.87 70.60 70.27 70.03 70.77 71.58 69.58 70.94 69.60 69.44 68.69 67.50 67.07 67.12 67.81 66.16 66.30 66.29 66.30 65.53 65.98 65.76 65.00 64.57 66.55
51.76 47.78 49.63 51.24 54.80 53.83 52.36 51.11 55.66 57.24 57.11 56.78 57.81 59.12 60.27 61.41 62.77 64.62 64.67 65.91 67.58 69.11 69.10 69.06 70.15 68.68 69.45 70.34 70.25 69.80 69.75 69.34 69.65 69.04 68.52 67.33 66.44 66.56 67.47 66.71 67.14 67.46 66.60 65.78 65.45 64.37 64.04 62.90 63.28
48.78 49.21 50.41 50.31 52.90 52.93 51.37 52.85 55.68 56.79 56.39 56.58 57.78 58.79 59.68 60.19 61.40 63.50 64.56 66.09 66.80 67.57 68.60 69.15 68.50 69.05 69.91 69.62 69.67 69.26 69.37 68.31 69.19 68.28 67.70 67.39 67.74 66.83 67.65 67.94 67.54 67.39 66.32 66.83 65.88 65.97 65.00 64.27 63.44
51.44 50.55 49.73 51.31 53.94 51.86 51.38 50.96 54.71 56.49 55.77 56.24 56.83 57.79 58.49 59.40 61.82 63.24 64.31 65.20 65.87 67.11 67.27 67.68 67.53 68.87 68.34 67.45 66.29 66.86 67.27 67.59 67.63 68.09 67.08 66.75 67.64 67.62 68.33 66.92 67.02 67.83 66.66 66.94 66.74 65.66 63.11 62.29 62.94
50.24 48.97 49.04 51.57 53.27 52.26 51.23 50.43 53.28 55.79 55.72 56.11 56.07 56.75 57.18 58.24 59.18 60.43 61.70 63.33 64.41 65.76 66.65 66.49 66.89 67.95 67.44 65.95 65.77 66.88 67.02 66.06 66.87 67.05 68.58 68.11 68.01 67.68 67.10 67.57 66.72 67.66 65.77 66.29 65.33 65.82 63.38 62.74 62.00
50.59 49.77 49.76 49.36 51.81 52.70 51.33 49.39 51.43 55.28 56.14 56.50 56.31 56.93 57.16 57.07 57.21 58.50 59.22 60.98 61.53 63.00 64.25 64.46 65.90 66.25 67.10 67.01 65.09 64.26 64.71 63.82 63.82 64.43 63.93 64.80 64.46 64.35 64.98 66.37 65.94 67.03 67.36 63.92 64.72 65.49 64.57 60.10 61.48
47.53 51.11 50.42 49.66 47.64 43.66 50.70 42.74 50.19 53.26 53.56 54.62 55.39 55.77 56.19 56.93 57.55 58.12 58.36 59.30 60.27 60.20 62.65 64.50 65.25 66.12 64.55 66.75 63.77 64.69 62.61 61.07 61.23 61.28 63.29 64.34 63.75 63.11 65.06 65.16 66.09 65.63 65.11 64.75 64.09 63.22 64.13 63.56 58.85
48.64 50.64 48.69 48.11 46.45 45.96 45.73 43.73 47.58 53.45 51.63 53.32 55.03 56.01 56.27 56.97 56.96 56.59 57.37 58.66 58.91 60.61 60.79 63.78 65.49 65.50 66.03 65.73 64.96 61.95 60.92 60.82 60.75 60.46 61.81 64.34 64.34 64.61 63.73 62.95 63.92 64.20 65.00 64.41 64.45 64.35 63.82 62.81 60.71
52.25 49.26 49.37 49.04 47.31 41.94 46.21 45.23 45.99 49.79 51.65 52.54 55.00 55.90 56.40 56.30 56.61 57.05 58.03 58.69 58.87 59.07 59.57 61.13 61.95 63.72 65.19 64.54 64.29 62.89 62.04 60.42 59.65 60.51 60.26 59.97 60.03 60.08 62.98 63.79 63.75 64.57 64.37 63.63 63.37 63.97 62.97 62.43 62.25
50.75 47.84 41.34 41.98 41.66 40.92 47.55 45.03 47.09 51.87 53.07 52.91 52.50 53.62 55.13 55.87 55.46 55.41 56.12 56.02 57.49 56.85 57.46 58.50 59.83 60.95 63.20 62.51 62.95 61.95 62.14 61.99 59.46 59.03 58.34 59.03 58.51 58.42 60.68 62.23 61.40 60.20 62.10 62.46 61.48 61.85 62.46 62.21 61.19
47.25 46.73 40.88 36.33 38.13 40.38 46.38 42.37 46.54 52.98 53.68 54.08 54.31 54.14 54.51 54.52 55.31 55.40 55.81 56.23 54.86 56.74 57.54 58.31 58.30 58.98 59.78 60.07 60.93 62.73 61.85 58.01 57.74 57.90 58.60 57.79 57.65 58.20 60.12 59.05 59.69 59.62 59.73 60.54 61.60 61.05 60.63 61.25 60.52
47.41 44.97 48.28 42.83 44.21 41.29 43.90 47.15 50.75 52.24 52.04 52.50 52.34 53.21 53.63 54.70 55.36 54.61 55.21 55.84 56.19 56.97 56.77 55.23 54.73 54.97 57.54 58.33 56.81 59.72 60.40 60.86 59.16 60.05 57.67 55.98 55.55 55.13 55.29 55.96 57.24 57.36 57.62 57.70 58.38 58.71 59.59 60.16 58.98
48.23 49.74 43.03 46.29 36.90 35.29 40.75 42.23 43.72 48.22 49.40 51.00 51.04 51.36 53.46 54.66 54.29 54.57 55.08 55.79 53.94 55.45 54.90 54.52 56.40 55.99 56.82 57.47 57.29 57.35 58.66 58.34 58.49 57.62 55.15 54.90 54.56 54.74 54.15 54.20 54.69 55.21 55.42 55.78 56.96 56.79 58.08 58.48 59.37
48.16 46.74 46.86 46.58 44.20 37.96 36.69 41.02 50.36 49.42 50.54 50.33 51.25 52.02 52.92 53.34 52.78 53.31 53.43 53.83 55.32 55.17 53.39 55.00 55.54 54.56 54.52 55.16 55.00 54.96 54.93 55.35 55.00 54.68 54.50 54.48 54.36 53.93 53.39 53.27 53.51 53.84 54.15 54.23 54.43 55.01 55.82 56.04 57.42
48.04 45.96 47.30 44.09 40.89 44.10 42.40 41.76 52.45 51.66 51.82 52.18 51.83 51.74 51.88 52.48 52.26 52.08 52.16 53.16 52.84 53.48 54.36 53.88 54.38 53.96 53.89 53.57 52.92 52.77 54.72 54.04 53.09 53.42 53.43 53.69 52.67 53.66 53.17 52.84 52.39 52.58 52.92 53.22 53.47 53.70 54.73 54.63 54.80